TimeCDT,TemperatureF,Dew PointF,Humidity,Sea Level PressureIn,VisibilityMPH,Wind Direction,Wind SpeedMPH,Gust SpeedMPH,PrecipitationIn,Events,Conditions,WindDirDegrees,DateUTC
12:54 AM,30.0,26.1,85,30.23,10.0,West,3.5,-,N/A,,Clear,280,2013-10-25 05:54:00
1:54 AM,30.0,25.0,82,30.23,10.0,WNW,5.8,-,N/A,,Clear,300,2013-10-25 06:54:00
2:54 AM,30.0,26.1,85,30.24,10.0,WNW,3.5,-,N/A,,Mostly Cloudy,290,2013-10-25 07:54:00
3:54 AM,30.0,27.0,88,30.25,10.0,WNW,4.6,-,N/A,,Mostly Cloudy,290,2013-10-25 08:54:00
4:54 AM,27.0,24.1,89,30.25,10.0,Calm,Calm,-,N/A,,Clear,0,2013-10-25 09:54:00
5:54 AM,28.9,25.0,85,30.26,10.0,West,3.5,-,N/A,,Clear,280,2013-10-25 10:54:00
6:54 AM,28.0,25.0,88,30.27,10.0,West,3.5,-,N/A,,Clear,280,2013-10-25 11:54:00
7:54 AM,28.9,25.0,85,30.26,10.0,West,3.5,-,N/A,,Clear,280,2013-10-25 12:54:00
8:54 AM,32.0,28.0,85,30.24,10.0,WSW,5.8,-,N/A,,Clear,240,2013-10-25 13:54:00
9:54 AM,36.0,28.9,76,30.23,10.0,WSW,6.9,-,N/A,,Clear,240,2013-10-25 14:54:00
10:54 AM,39.9,27.0,60,30.22,10.0,WSW,10.4,-,N/A,,Clear,240,2013-10-25 15:54:00
11:54 AM,41.0,23.0,49,30.19,10.0,West,12.7,19.6,N/A,,Clear,260,2013-10-25 16:54:00
12:54 PM,43.0,23.0,45,30.14,10.0,WSW,9.2,17.3,N/A,,Scattered Clouds,240,2013-10-25 17:54:00
1:54 PM,41.0,21.9,47,30.10,10.0,SW,9.2,17.3,N/A,,Mostly Cloudy,220,2013-10-25 18:54:00
2:54 PM,42.1,23.0,47,30.05,10.0,SSW,9.2,25.3,N/A,,Mostly Cloudy,210,2013-10-25 19:54:00
3:54 PM,42.1,21.9,45,30.01,10.0,SSW,15.0,-,N/A,,Mostly Cloudy,210,2013-10-25 20:54:00
4:54 PM,41.0,23.0,49,29.92,10.0,South,15.0,23.0,N/A,,Overcast,190,2013-10-25 21:54:00
5:54 PM,41.0,25.0,53,29.86,10.0,South,13.8,-,N/A,,Overcast,190,2013-10-25 22:54:00
6:54 PM,42.1,25.0,51,29.82,10.0,South,12.7,-,N/A,,Overcast,180,2013-10-25 23:54:00
7:54 PM,42.1,26.1,53,29.78,10.0,South,9.2,-,N/A,,Overcast,190,2013-10-26 00:54:00
8:54 PM,43.0,28.0,56,29.75,10.0,SSW,9.2,-,N/A,,Overcast,200,2013-10-26 01:54:00
9:54 PM,44.1,28.9,55,29.69,10.0,SSW,9.2,-,N/A,,Overcast,210,2013-10-26 02:54:00
10:54 PM,48.9,32.0,52,29.65,10.0,WSW,13.8,21.9,0.00,,Overcast,250,2013-10-26 03:54:00
11:54 PM,48.0,34.0,58,29.62,10.0,WSW,13.8,19.6,0.00,,Overcast,240,2013-10-26 04:54:00